Weather History for Harlan, IA

Change the Weather History Date:

Friday, October 26, 2012

  Actual Average Record
Temperature  
Mean Temperature 34 °F -  
Max Temperature 41 °F 60 °F 84 °F (1955)
Min Temperature 26 °F 37 °F 20 °F (1980)
Degree Days  
Heating Degree Days 32    
Moisture  
Dew Point 26 °F    
Average Humidity 73    
Maximum Humidity 100    
Minimum Humidity 53    
Precipitation  
Precipitation 0.00 in - - ()
Sea Level Pressure  
Sea Level Pressure 30.45 in    
Wind  
Wind Speed 9 mph (NW)    
Max Wind Speed 17 mph    
Max Gust Speed 24 mph    
Visibility 10 miles    
Events      
Averages and records for this station are not official NWS values.
T = Trace of Precipitation, MM = Missing Value Source: NWS Daily Summary

Daily Weather History Graph

Daily Weather History Graph

Search for Another Location

Airport:

Trip Planner

Search our weather history database for the weather conditions in past years. The results will help you decide how hot, cold, wet, or windy it might be!

Date:

Astronomy

Oct. 26, 2012 Rise Set
Actual Time 7:46 AM CDT 6:23 PM CDT
Civil Twilight 7:18 AM CDT 6:51 PM CDT
Nautical Twilight 6:45 AM CDT 7:24 PM CDT
Astronomical Twilight 6:13 AM CDT 7:56 PM CDT
Moon 4:41 PM CDT (10/26) 4:41 AM CDT (10/26)
Length of Visible Light 11h 33m
Length of Day
10h 36m
Waxing Gibbous, 91% of the Moon is Illuminated
Oct 26
Waxing Gibbous
Oct 29
Full
Nov 6
Last Quarter
Nov 13
New
Nov 20
First Quarter

Hourly Weather History & Observations

Time (CDT) Temp. Windchill Dew Point Humidity Pressure Visibility Wind Dir Wind Speed Gust Speed Precip Events Conditions
12:35 AM 30.2 °F 23.4 °F 28.4 °F 93% 30.35 in 10.0 mi NW 6.9 mph - N/A   Clear
12:55 AM 30.2 °F 24.3 °F 26.6 °F 86% 30.35 in 10.0 mi WNW 5.8 mph - N/A   Clear
1:15 AM 28.4 °F 19.7 °F 26.6 °F 93% 30.35 in 10.0 mi WNW 9.2 mph - N/A   Clear
1:35 AM 28.4 °F 21.2 °F 26.6 °F 93% 30.35 in 10.0 mi WNW 6.9 mph - N/A   Clear
1:55 AM 28.4 °F 20.4 °F 26.6 °F 93% 30.36 in 10.0 mi WNW 8.1 mph - N/A   Clear
2:15 AM 28.4 °F 21.2 °F 26.6 °F 93% 30.36 in 10.0 mi West 6.9 mph - N/A   Clear
2:35 AM 28.4 °F 21.2 °F 26.6 °F 93% 30.37 in 10.0 mi WNW 6.9 mph - N/A   Clear
2:55 AM 28.4 °F 21.2 °F 26.6 °F 93% 30.37 in 10.0 mi WNW 6.9 mph - N/A   Clear
3:15 AM 28.4 °F 20.4 °F 26.6 °F 93% 30.39 in 10.0 mi West 8.1 mph - N/A   Clear
3:35 AM 28.4 °F 19.1 °F 26.6 °F 93% 30.39 in 10.0 mi West 10.4 mph - N/A   Clear
3:55 AM 28.4 °F 19.7 °F 26.6 °F 93% 30.40 in 10.0 mi West 9.2 mph - N/A   Clear
4:15 AM 26.6 °F 17.5 °F 26.6 °F 100% 30.41 in 10.0 mi West 9.2 mph - N/A   Scattered Clouds
4:35 AM 28.4 °F 19.7 °F 26.6 °F 93% 30.41 in 10.0 mi West 9.2 mph - N/A   Mostly Cloudy
4:55 AM 30.2 °F 21.9 °F 28.4 °F 93% 30.42 in 10.0 mi WNW 9.2 mph - N/A   Overcast
5:15 AM 28.4 °F 19.7 °F 26.6 °F 93% 30.42 in 10.0 mi WNW 9.2 mph - N/A   Scattered Clouds
5:35 AM 30.2 °F 22.6 °F 28.4 °F 93% 30.43 in 10.0 mi WNW 8.1 mph - N/A   Mostly Cloudy
5:55 AM 30.2 °F 23.4 °F 28.4 °F 93% 30.44 in 10.0 mi WNW 6.9 mph - N/A   Overcast
6:15 AM 30.2 °F 23.4 °F 28.4 °F 93% 30.45 in 10.0 mi WNW 6.9 mph - N/A   Overcast
6:35 AM 32.0 °F 25.6 °F 28.4 °F 87% 30.46 in 10.0 mi NW 6.9 mph - N/A   Overcast
6:55 AM 32.0 °F 24.8 °F 28.4 °F 87% 30.47 in 10.0 mi NW 8.1 mph - N/A   Overcast
7:15 AM 32.0 °F 25.6 °F 28.4 °F 87% 30.47 in 10.0 mi NW 6.9 mph - N/A   Overcast
7:55 AM 30.2 °F 22.6 °F 28.4 °F 93% 30.47 in 10.0 mi NNW 8.1 mph - N/A   Overcast
8:35 AM 33.8 °F 27.0 °F 28.4 °F 81% 30.48 in 10.0 mi NNW 8.1 mph - N/A   Overcast
8:55 AM 33.8 °F 26.4 °F 28.4 °F 81% 30.49 in 10.0 mi NNW 9.2 mph - N/A   Overcast
9:15 AM 33.8 °F 25.8 °F 28.4 °F 81% 30.49 in 10.0 mi NNW 10.4 mph - N/A   Overcast
9:35 AM 35.6 °F 27.1 °F 26.6 °F 70% 30.50 in 10.0 mi NNW 12.7 mph - N/A   Overcast
9:55 AM 35.6 °F 25.9 °F 26.6 °F 70% 30.51 in 10.0 mi NNW 16.1 mph 20.7 mph N/A   Overcast
10:15 AM 35.6 °F 25.9 °F 24.8 °F 65% 30.51 in 10.0 mi North 16.1 mph - N/A   Overcast
10:35 AM 35.6 °F 25.9 °F 24.8 °F 65% 30.52 in 10.0 mi NNW 16.1 mph - N/A   Overcast
10:55 AM 37.4 °F 28.2 °F 24.8 °F 60% 30.52 in 10.0 mi North 16.1 mph 19.6 mph N/A   Overcast
11:15 AM 37.4 °F 29.8 °F 24.8 °F 60% 30.52 in 10.0 mi North 11.5 mph 17.3 mph N/A   Mostly Cloudy
11:35 AM 39.2 °F 30.2 °F 24.8 °F 56% 30.51 in 10.0 mi NNW 17.3 mph 24.2 mph N/A   Mostly Cloudy
11:55 AM 37.4 °F 29.3 °F 24.8 °F 60% 30.52 in 10.0 mi North 12.7 mph 17.3 mph N/A   Mostly Cloudy
12:15 PM 37.4 °F 28.5 °F 24.8 °F 60% 30.52 in 10.0 mi NW 15.0 mph 20.7 mph N/A   Overcast
12:35 PM 39.2 °F 32.0 °F 24.8 °F 56% 30.52 in 10.0 mi NW 11.5 mph 16.1 mph N/A   Overcast
12:55 PM 39.2 °F 33.0 °F 24.8 °F 56% 30.51 in 10.0 mi NW 9.2 mph 16.1 mph N/A   Mostly Cloudy
1:15 PM 39.2 °F 33.0 °F 24.8 °F 56% 30.50 in 10.0 mi NNW 9.2 mph 16.1 mph N/A   Mostly Cloudy
1:35 PM 39.2 °F 33.0 °F 24.8 °F 56% 30.49 in 10.0 mi NNW 9.2 mph - N/A   Mostly Cloudy
1:55 PM 41.0 °F 33.1 °F 24.8 °F 53% 30.48 in 10.0 mi NNW 15.0 mph - N/A   Mostly Cloudy
2:15 PM 39.2 °F 32.5 °F 24.8 °F 56% 30.48 in 10.0 mi NNW 10.4 mph 16.1 mph N/A   Mostly Cloudy
2:35 PM 39.2 °F 32.5 °F 24.8 °F 56% 30.48 in 10.0 mi NW 10.4 mph 18.4 mph N/A   Overcast
2:55 PM 39.2 °F 31.6 °F 26.6 °F 61% 30.47 in 10.0 mi NW 12.7 mph - N/A   Overcast
3:15 PM 39.2 °F 31.6 °F 24.8 °F 56% 30.47 in 10.0 mi WNW 12.7 mph - N/A   Mostly Cloudy
3:35 PM 39.2 °F 33.0 °F 24.8 °F 56% 30.46 in 10.0 mi NW 9.2 mph - N/A   Scattered Clouds
3:55 PM 39.2 °F 33.0 °F 24.8 °F 56% 30.47 in 10.0 mi NW 9.2 mph 17.3 mph N/A   Mostly Cloudy
4:15 PM 39.2 °F 32.0 °F 26.6 °F 61% 30.47 in 10.0 mi NW 11.5 mph - N/A   Overcast
4:35 PM 39.2 °F 32.5 °F 24.8 °F 56% 30.47 in 10.0 mi NW 10.4 mph 17.3 mph N/A   Overcast
4:55 PM 37.4 °F 31.4 °F 24.8 °F 60% 30.47 in 10.0 mi NW 8.1 mph 12.7 mph N/A   Overcast
5:15 PM 37.4 °F 30.8 °F 24.8 °F 60% 30.46 in 10.0 mi NW 9.2 mph - N/A   Overcast
5:35 PM 37.4 °F 32.1 °F 26.6 °F 65% 30.45 in 10.0 mi NW 6.9 mph - N/A   Overcast
5:55 PM 37.4 °F 30.3 °F 26.6 °F 65% 30.45 in 10.0 mi NW 10.4 mph - N/A   Overcast
6:15 PM 37.4 °F 31.4 °F 26.6 °F 65% 30.45 in 10.0 mi NW 8.1 mph - N/A   Overcast
6:35 PM 37.4 °F 32.8 °F 26.6 °F 65% 30.45 in 10.0 mi NNW 5.8 mph - N/A   Overcast
6:55 PM 37.4 °F 32.1 °F 26.6 °F 65% 30.46 in 10.0 mi NNW 6.9 mph - N/A   Overcast
7:15 PM 37.4 °F 33.8 °F 26.6 °F 65% 30.45 in 10.0 mi NNW 4.6 mph - N/A   Overcast
7:35 PM 37.4 °F 31.4 °F 26.6 °F 65% 30.45 in 10.0 mi NW 8.1 mph - N/A   Overcast
7:55 PM 37.4 °F 32.1 °F 26.6 °F 65% 30.45 in 10.0 mi NNW 6.9 mph - N/A   Overcast
8:15 PM 37.4 °F 31.4 °F 24.8 °F 60% 30.46 in 10.0 mi NNW 8.1 mph - N/A   Overcast
8:35 PM 37.4 °F 32.8 °F 26.6 °F 65% 30.46 in 10.0 mi NNW 5.8 mph - N/A   Overcast
9:15 PM 35.6 °F - 28.4 °F 75% 30.46 in 10.0 mi Calm Calm - N/A   Overcast
9:35 PM 37.4 °F 33.8 °F 26.6 °F 65% 30.46 in 10.0 mi NW 4.6 mph - N/A   Overcast
10:15 PM 35.6 °F 31.7 °F 26.6 °F 70% 30.46 in 10.0 mi NW 4.6 mph - N/A   Overcast
10:35 PM 35.6 °F 31.7 °F 28.4 °F 75% 30.46 in 10.0 mi WNW 4.6 mph - N/A   Overcast
10:55 PM 35.6 °F 31.7 °F 26.6 °F 70% 30.45 in 10.0 mi NW 4.6 mph - N/A   Overcast
11:15 PM 35.6 °F 32.8 °F 26.6 °F 70% 30.44 in 10.0 mi NNW 3.5 mph - N/A   Overcast
11:35 PM 35.6 °F 31.7 °F 24.8 °F 65% 30.44 in 10.0 mi WNW 4.6 mph - N/A   Overcast
11:55 PM 35.6 °F 29.9 °F 24.8 °F 65% 30.45 in 10.0 mi NW 6.9 mph - N/A   Overcast